This is the latest recevied weather packets stored in our database for station/object SP4MAZ-13. If no packets are shown the sender has not sent any weather packets the latest 1 day(s).
| Time | Temp. | Humidity | Pressure | Rain* | Wind** | Luminosity | Snow |
|---|---|---|---|---|---|---|---|
| 1778076810 | 20° C | 59% | 2147.4 hPa | - | - | - | - |
| 1778075900 | 18.33° C | 64% | 2147.4 hPa | - | - | - | - |
| 1778075295 | 20° C | 55% | 2147.4 hPa | - | - | - | - |
| 1778074992 | 19.44° C | 61% | 2147.4 hPa | - | - | - | - |
| 1778073780 | 21.11° C | 53% | 2147.4 hPa | - | - | - | - |
| 1778071050 | 23.33° C | 46% | 2147.4 hPa | - | - | - | - |
| 1778069841 | 21.67° C | 51% | 2147.4 hPa | - | - | - | - |
| 1778069235 | 20° C | 55% | 2147.4 hPa | - | - | - | - |
| 1778068628 | 18.33° C | 61% | 2147.4 hPa | - | - | - | - |
| 1778068325 | 17.78° C | 63% | 2147.4 hPa | - | - | - | - |
| 1778068019 | 17.22° C | 67% | 2147.4 hPa | - | - | - | - |
| 1778067715 | 17.78° C | 62% | 2147.4 hPa | - | - | - | - |
| 1778067110 | 18.33° C | 60% | 2147.4 hPa | - | - | - | - |
| 1778066505 | 19.44° C | 56% | 2147.4 hPa | - | - | - | - |
| 1778065292 | 19.44° C | 57% | 2147.4 hPa | - | - | - | - |
| 1778064685 | 18.89° C | 59% | 2147.4 hPa | - | - | - | - |
| 1778063778 | 18.89° C | 58% | 2147.4 hPa | - | - | - | - |
| 1778063474 | 16.67° C | 68% | 2147.4 hPa | - | - | - | - |
| 1778063172 | 15° C | 78% | 2147.4 hPa | - | - | - | - |
| 1778062567 | 15° C | 77% | 2147.4 hPa | - | - | - | - |
| 1778061961 | 15.56° C | 73% | 2147.4 hPa | - | - | - | - |
| 1778061356 | 16.11° C | 69% | 2147.4 hPa | - | - | - | - |
| 1778061054 | 15.56° C | 71% | 2147.4 hPa | - | - | - | - |
| 1778060751 | 16.11° C | 69% | 2147.4 hPa | - | - | - | - |
| 1778060448 | 15° C | 76% | 2147.4 hPa | - | - | - | - |
* Rain since midnight (hover to see other rain measurements)
** Current wind speed in m/s (hover to see current wind gust speed)